TimeMST,TemperatureF,Dew PointF,Humidity,Sea Level PressureIn,VisibilityMPH,Wind Direction,Wind SpeedMPH,Gust SpeedMPH,PrecipitationIn,Events,Conditions,WindDirDegrees,DateUTC
12:53 AM,34.0,23.0,64,30.16,10.0,NNE,9.2,-,N/A,,Clear,20,2013-03-03 07:53:00
1:53 AM,34.0,23.0,64,30.14,10.0,NE,5.8,-,N/A,,Clear,50,2013-03-03 08:53:00
2:53 AM,35.1,21.9,59,30.09,10.0,NNE,3.5,-,N/A,,Clear,20,2013-03-03 09:53:00
3:53 AM,35.1,23.0,61,30.06,10.0,Calm,Calm,-,N/A,,Clear,0,2013-03-03 10:53:00
4:53 AM,33.8,24.8,70,30.05,10.0,Calm,Calm,-,N/A,,Clear,0,2013-03-03 11:53:00
5:53 AM,34.0,24.1,67,30.04,10.0,Calm,Calm,-,N/A,,Clear,0,2013-03-03 12:53:00
6:53 AM,35.1,24.1,64,30.04,10.0,NE,3.5,-,N/A,,Clear,50,2013-03-03 13:53:00
7:53 AM,35.1,25.0,67,30.05,10.0,NNE,4.6,-,N/A,,Clear,20,2013-03-03 14:53:00
8:53 AM,37.9,26.1,62,30.05,10.0,Calm,Calm,-,N/A,,Scattered Clouds,0,2013-03-03 15:53:00
9:53 AM,41.0,26.1,55,30.02,10.0,Calm,Calm,-,N/A,,Overcast,0,2013-03-03 16:53:00
10:53 AM,46.0,24.1,42,29.99,10.0,SE,3.5,-,N/A,,Overcast,140,2013-03-03 17:53:00
11:53 AM,48.9,23.0,36,29.96,10.0,SE,5.8,-,N/A,,Overcast,140,2013-03-03 18:53:00
12:53 PM,50.0,25.0,38,29.93,10.0,SE,5.8,-,N/A,,Mostly Cloudy,140,2013-03-03 19:53:00
1:53 PM,50.0,25.0,38,29.90,10.0,South,4.6,-,N/A,,Mostly Cloudy,180,2013-03-03 20:53:00
2:53 PM,51.1,24.1,35,29.88,10.0,SW,4.6,-,N/A,,Partly Cloudy,220,2013-03-03 21:53:00
3:53 PM,51.1,25.0,36,29.88,10.0,West,17.3,26.5,N/A,,Scattered Clouds,280,2013-03-03 22:53:00
4:53 PM,52.0,25.0,35,29.88,10.0,WNW,10.4,-,N/A,,Overcast,300,2013-03-03 23:53:00
5:53 PM,48.9,25.0,39,29.88,10.0,WNW,5.8,-,N/A,,Overcast,290,2013-03-04 00:53:00
6:53 PM,46.9,25.0,42,29.88,10.0,WNW,5.8,-,N/A,,Mostly Cloudy,300,2013-03-04 01:53:00
7:53 PM,45.0,26.1,48,29.89,10.0,NNW,10.4,-,N/A,,Overcast,330,2013-03-04 02:53:00
8:53 PM,39.9,26.1,58,29.90,10.0,NNW,5.8,-,N/A,,Clear,330,2013-03-04 03:53:00
9:53 PM,42.1,27.0,55,29.87,10.0,NNW,8.1,-,N/A,,Clear,330,2013-03-04 04:53:00
10:53 PM,42.1,27.0,55,29.85,10.0,NNW,8.1,-,N/A,,Clear,340,2013-03-04 05:53:00
11:53 PM,35.1,26.1,70,29.84,10.0,North,5.8,-,N/A,,Partly Cloudy,350,2013-03-04 06:53:00